Flight Track Log - Related Links

Times and Time Zones

All times are in EDT time to prevent confusion due to time zone crossing. See the JTA625 flight status page for this flight to view local times or setup timezone preferences in your user account.

Time Position Orientation Groundspeed Altitude Reporting Facility
EDT Latitude Longitude Course Direction KTS MPH feet Rate Location/Type
Thu 05:59:00 AM 25.8934 127.0629 240° Southwest  Level Estimated
Thu 06:00:00 AM 25.8428 126.9660 240° Southwest  Level Estimated
Thu 06:01:00 AM 25.7921 126.8692 240° Southwest  Level Estimated
Thu 06:02:00 AM 25.7413 126.7725 240° Southwest  Level Estimated
Thu 06:03:00 AM 25.6905 126.6759 240° Southwest  Level Estimated
Thu 06:04:00 AM 25.6396 126.5794 240° Southwest  Level Estimated
Thu 06:05:00 AM 25.5887 126.4829 240° Southwest  Level Estimated
Thu 06:06:00 AM 25.5377 126.3865 240° Southwest  Level Estimated
Thu 06:07:00 AM 25.4866 126.2902 240° Southwest  Level Estimated
Thu 06:08:00 AM 25.4354 126.1940 240° Southwest  Level Estimated
Thu 06:09:00 AM 25.3843 126.0979 239° Southwest  Level Estimated
Thu 06:10:00 AM 25.3330 126.0018 239° Southwest  Level Estimated
Thu 06:11:00 AM 25.2817 125.9059 239° Southwest  Level Estimated
Thu 06:12:00 AM 25.2303 125.8100 239° Southwest  Level Estimated
Thu 06:13:00 AM 25.1788 125.7142 239° Southwest  Level Estimated
Thu 06:14:00 AM 25.1273 125.6184 239° Southwest  Level Estimated
Thu 06:15:00 AM 25.0758 125.5228 239° Southwest  Level Estimated
Thu 06:16:00 AM 25.0241 125.4273 239° Southwest  Level Estimated
Thu 06:17:00 AM 24.9724 125.3318 239° Southwest  Level Estimated
Thu 06:18:00 AM 24.9207 125.2364 239° Southwest  Level Estimated
Thu 06:19:00 AM 24.8689 125.1411 239° Southwest  Level Estimated
Thu 06:20:00 AM 24.8170 125.0458 239° Southwest  Level Estimated
Thu 06:21:00 AM 24.7650 124.9507 239° Southwest  Level Estimated
Thu 06:22:00 AM 24.7131 124.8556 239° Southwest  Level Estimated
Thu 06:23:00 AM 24.6610 124.7606 239° Southwest  Level Estimated
Thu 06:24:00 AM 24.6089 124.6656 239° Southwest  Level Estimated
Thu 06:25:00 AM 24.5567 124.5708 239° Southwest  Level Estimated
Thu 06:26:00 AM 24.5045 124.4760 239° Southwest  Level Estimated
Thu 06:27:00 AM 24.4522 124.3813 239° Southwest  Level Estimated
Thu 06:28:00 AM 24.3998 124.2867 239° Southwest  Level Estimated
Thu 06:29:00 AM 24.3474 124.1922 239° Southwest  Level Estimated
Thu 06:30:00 AM 24.3445 124.1870 239° Southwest  Level Estimated
Thu 06:31:00 AM 24.3445 124.1870 29° Northeast  Level Estimated
Thu 06:32:00 AM 24.3445 124.1870 29° Northeast  Level Estimated
Thu 06:33:00 AM 24.3445 124.1870 29° Northeast  Level Estimated
Thu 06:34:00 AM 24.3445 124.1870 29° Northeast  Level Estimated
Thu 06:35:00 AM 24.3445 124.1870 29° Northeast  Level Estimated
Thu 06:36:00 AM 24.3445 124.1870 29° Northeast  Level Estimated
Thu 06:37:00 AM 24.3445 124.1870 29° Northeast  Level Estimated

Login

Don't have an account? Register now (free) for customized features, flight alerts, and more!